Rockford, IL

7:24 PM CST on February 27, 2017 (GMT -0600)
Greater Rockford

Weather History for KRFD - October, 2011

Change the Weather History Date:

Sunday, October 30, 2011

  Actual Average Record
Temperature  
Mean Temperature 45 °F 47 °F  
Max Temperature 55 °F 57 °F 83 °F (1950)
Min Temperature 34 °F 37 °F 7 °F (1925)
Degree Days  
Heating Degree Days 20 18  
Month to date heating degree days 331 402  
Since 1 July heating degree days 497 533  
Cooling Degree Days 0 0  
Month to date cooling degree days 14 8  
Year to date cooling degree days 1019 819  
Moisture  
Dew Point 34 °F    
Average Humidity 71    
Maximum Humidity 93    
Minimum Humidity 49    
Precipitation  
Precipitation 0.05 in 0.08 in 0.97 in (1967)
Month to date precipitation 1.58 2.58  
Year to date precipitation 32.95 31.59  
Snow  
Snow 0.00 in 0.00 in 1.00 in (1923)
Month to date snowfall 0.0 0.1  
Since 1 July snowfall 0.0 0.1  
Since 1 September snowfall 0.0 0.1  
Snow Depth -    
Sea Level Pressure  
Sea Level Pressure 30.00 in    
Wind  
Wind Speed 12 mph (South)    
Max Wind Speed 28 mph    
Max Gust Speed 40 mph    
Visibility 9 miles    
Events Fog , Rain    
T = Trace of Precipitation, MM = Missing Value Source: NWS Daily Summary

Daily Weather History Graph

Daily Weather History Graph

Search for Another Location

Airport or City:

Trip Planner

Search our weather history database for the weather conditions in past years. The results will help you decide how hot, cold, wet, or windy it might be!

Date:

Astronomy

Oct. 30, 2011 Rise Set
Actual Time 7:26 AM CDT 5:52 PM CDT
Civil Twilight 6:57 AM CDT 6:21 PM CDT
Nautical Twilight 6:24 AM CDT 6:54 PM CDT
Astronomical Twilight 5:52 AM CDT 7:27 PM CDT
Moon 11:49 AM CDT (10/30) 9:18 PM CDT (10/30)
Length of Visible Light 11h 24m
Length of Day
10h 26m
Waxing Crescent, 20% of the Moon is Illuminated
Oct 30
Waxing Crescent
Nov 2
First Quarter
Nov 10
Full
Nov 18
Last Quarter
Nov 25
New

Hourly Weather History & Observations

Time (CDT) Temp. Windchill Dew Point Humidity Pressure Visibility Wind Dir Wind Speed Gust Speed Precip Events Conditions
12:54 AM 37.0 °F - 25.0 °F 62% 30.12 in 10.0 mi Calm Calm - N/A   Clear
1:54 AM 35.1 °F 32.2 °F 26.1 °F 70% 30.11 in 10.0 mi SSE 3.5 mph - N/A   Partly Cloudy
2:54 AM 36.0 °F 32.1 °F 25.0 °F 64% 30.10 in 10.0 mi SSE 4.6 mph - N/A   Mostly Cloudy
3:54 AM 37.9 °F 31.5 °F 27.0 °F 65% 30.09 in 10.0 mi SSE 9.2 mph - N/A   Mostly Cloudy
4:54 AM 39.9 °F 33.4 °F 28.0 °F 63% 30.07 in 10.0 mi SSE 10.4 mph - N/A   Overcast
5:54 AM 42.1 °F 34.9 °F 27.0 °F 55% 30.06 in 10.0 mi SSE 13.8 mph 23.0 mph N/A   Overcast
6:54 AM 42.1 °F 35.2 °F 26.1 °F 53% 30.03 in 10.0 mi SSE 12.7 mph - N/A   Overcast
7:54 AM 44.1 °F 36.5 °F 26.1 °F 49% 30.03 in 10.0 mi South 17.3 mph - N/A   Overcast
8:54 AM 44.1 °F 36.2 °F 28.0 °F 53% 30.03 in 10.0 mi South 18.4 mph - N/A   Mostly Cloudy
9:54 AM 48.0 °F - 30.9 °F 52% 30.01 in 10.0 mi South 11.5 mph - N/A   Mostly Cloudy
10:54 AM 48.0 °F - 30.9 °F 52% 30.00 in 10.0 mi South 16.1 mph - N/A   Mostly Cloudy
11:54 AM 48.9 °F - 34.0 °F 56% 29.97 in 10.0 mi South 18.4 mph - 0.00 in   Overcast
12:54 PM 52.0 °F - 36.0 °F 54% 29.93 in 10.0 mi South 19.6 mph 27.6 mph 0.00 in Rain Light Rain
1:54 PM 55.4 °F - 37.4 °F 51% 29.90 in 10.0 mi SSW 26.5 mph 33.4 mph N/A   Overcast
2:54 PM 51.1 °F - 39.9 °F 66% 29.91 in 10.0 mi SSW 21.9 mph 28.8 mph 0.00 in Rain Light Rain
3:54 PM 46.9 °F - 43.0 °F 86% 29.92 in 7.0 mi South 16.1 mph - 0.04 in Rain Light Rain
4:54 PM 46.0 °F 40.2 °F 43.0 °F 89% 29.93 in 10.0 mi South 12.7 mph - 0.01 in Rain Light Rain
5:54 PM 46.4 °F 41.5 °F 42.8 °F 87% 29.92 in 10.0 mi South 10.4 mph - N/A Rain Light Rain
6:54 PM 46.9 °F - 43.0 °F 86% 29.95 in 10.0 mi SSW 9.2 mph - 0.00 in   Overcast
7:54 PM 46.9 °F - 43.0 °F 86% 29.96 in 10.0 mi SSW 9.2 mph - N/A   Overcast
8:54 PM 46.0 °F 43.9 °F 42.1 °F 86% 29.97 in 10.0 mi SSW 4.6 mph - N/A   Overcast
9:54 PM 43.0 °F 41.3 °F 39.9 °F 89% 29.98 in 10.0 mi South 3.5 mph - N/A   Mostly Cloudy
10:54 PM 41.0 °F 39.0 °F 39.0 °F 93% 29.98 in 7.0 mi South 3.5 mph - N/A Fog Patches of Fog
11:26 PM 39.2 °F 35.9 °F 37.4 °F 93% 29.96 in 1.5 mi South 4.6 mph - N/A Fog Patches of Fog
11:54 PM 39.0 °F 36.8 °F 37.9 °F 96% 29.98 in 1.5 mi South 3.5 mph - N/A Fog Patches of Fog